TIME,DELAY(SENSOR),PRES,OXYGEN,RAWTEMP,T(OPTODE),TCPHASE,FLUOR,BETA(BETA700),BETA(BETA412),BETA(BETA440),CDOM,C(CSC),ED(ED411.90),ED(ED443.80),ED(ED489.40),ED(ED554.70),LU(LU412.20),LU(LU443.80),LU(LU489.40),LU(LU555.00),COMP,TILTX,TILTY,CHECK
1358719806,5804,850.8099975585938000,163.9304046630859400,428.3541870117187500,9.7366447448730470,39.1365699768066400,54,108,98,78,80,12242,2146963465,2147518372,2147287360,2147502473,2147084882,2146927396,2147703469,2147122998,2115,-1,9,51803
1358723402,5810,972.5200195312500000,194.0778045654297000,499.6372985839844000,7.5407462120056150,38.2637290954589840,54,109,98,79,81,12234,2146959232,2147517787,2147293668,2147515410,2147086363,2146924653,2147717147,2147122121,2710,-1,9,42276
1358727002,5803,988.7100219726562000,208.7368927001953000,514.1470947265625000,7.0899138450622560,37.6196212768554700,54,109,97,79,81,12230,2146963181,2147516608,2147295232,2147519515,2147087012,2146923227,2147716425,2147123894,3510,-1,9,18511
1358730602,5808,995.9000244140625000,211.6058959960937500,515.1531982421875000,7.0585999488830570,37.4687690734863300,55,110,98,81,81,12232,2146961490,2147512996,2147295213,2147519826,2147086326,2146923830,2147719753,2147120813,253,-1,9,29905
1358734202,5809,997.4299926757812000,211.3152008056640600,516.6135864257812000,7.0131340026855470,37.5113716125488300,54,110,98,81,81,12233,2146959369,2147514633,2147295881,2147517860,2147088338,2146922093,2147722541,2147119149,25,0,9,42545
1358737802,5807,1002.4400024414062000,209.5881042480468800,517.5100097656250000,6.9852180480957030,37.6290702819824200,55,111,97,79,82,12230,2146959817,2147514313,2147299154,2147519890,2147088969,2146922230,2147720548,2147123602,3589,-1,9,61978
1358741402,5806,1006.4600219726562000,211.9355010986328000,516.5291137695312000,7.0157642364501950,37.4731712341308600,54,108,97,80,81,12229,2146963008,2147515812,2147298770,2147517723,2147085659,2146922532,2147722953,2147121243,217,-1,9,8906
1358745002,5803,1008.3300170898438000,211.7982025146484400,516.7205810546875000,7.0098028182983400,37.4851112365722660,55,110,99,78,80,12231,2146965869,2147515629,2147299766,2147517394,2147086976,2146925568,2147720950,2147119990,3414,-1,9,4469
1358748602,5806,1009.8900146484375000,213.3125000000000000,517.7642211914062000,6.9773020744323730,37.4159393310546900,55,110,97,77,80,12222,2146962742,2147513216,2147296283,2147517696,2147088420,2146922944,2147719350,2147120484,2798,-1,8,44287
1358752202,5804,1012.8499755859375000,212.6548004150390600,516.7125854492188000,7.0100522041320800,37.4358406066894500,54,109,98,78,81,12222,2146962276,2147517897,2147298304,2147516406,2147090313,2146920484,2147721810,2147120859,3439,-1,9,8568
1358755802,5805,1005.8699951171875000,213.0339050292968800,517.9177246093750000,6.9725217819213870,37.4341697692871100,55,111,98,79,80,12216,2146964068,2147516562,2147299053,2147520722,2147089920,2146921444,2147720045,2147120658,2746,-1,9,61810
1358759402,5805,1005.4299926757812000,214.3426971435547000,519.2844238281250000,6.9299430847167970,37.3829498291015600,54,110,98,79,81,12211,2146962733,2147513755,2147300169,2147519131,2147090349,2146919588,2147723072,2147119515,2741,-1,9,26476
1358763002,5805,1007.0300292968750000,213.7859039306640600,520.5830078125000000,6.8894767761230470,37.4383888244628900,54,108,97,78,82,12217,2146961453,2147515209,2147295789,2147518089,2147088996,2146918262,2147722477,2147121810,3245,-1,9,2543
1358766602,5805,1005.7600097656250000,214.5915069580078000,521.1635131835938000,6.8713841438293460,37.4020500183105500,55,112,98,79,80,12216,2146961691,2147513362,2147299858,2147521051,2147087844,2146922422,2147722953,2147122715,3476,-1,9,20311
1358770202,5806,1002.5800170898438000,215.1071929931640600,521.9822998046875000,6.8458600044250490,37.3867492675781250,55,109,99,79,82,12212,2146964708,2147519168,2147298130,2147517915,2147090715,2146919168,2147718893,2147120941,3551,-1,9,34166
1358773802,5805,1001.2399902343750000,214.8782958984375000,522.8588256835938000,6.8185310363769530,37.4156684875488300,54,111,99,78,80,12214,2146961536,2147516836,2147296265,2147518912,2147088265,2146917467,2147722468,2147122669,3558,-1,9,12749
1358777402,5807,1003.3300170898438000,215.2805938720703000,522.8687744140625000,6.8182191848754880,37.3929595947265600,54,111,98,78,80,12212,2146962340,2147515117,2147295744,2147518052,2147087497,2146920969,2147718372,2147122761,113,-1,9,54893
1358781002,5807,1009.2600097656250000,216.4564056396484400,522.0078735351562000,6.8450598716735840,37.3104591369628900,55,111,97,79,81,12207,2146964278,2147513289,2147301449,2147521435,2147092205,2146923062,2147721225,2147117778,3285,-1,9,35247
1358784602,5807,1007.9000244140625000,215.2256927490234400,522.0977172851562000,6.8422617912292480,37.3828086853027340,54,107,97,79,80,12211,2146961353,2147519533,2147299446,2147521188,2147088923,2146921225,2147723529,2147120704,346,0,9,14640
1358788202,5804,1006.6199951171875000,217.3854064941406200,522.8717041015625000,6.8181281089782715,37.2733192443847660,55,109,98,77,82,12211,2146962925,2147516443,2147298395,2147517632,2147087789,2146920923,2147722102,2147121545,3422,-1,9,5629
1358791802,5803,1016.2700195312500000,215.4356994628906200,520.1666259765625000,6.9024548530578610,37.3365097045898440,54,110,99,79,80,12204,2146962404,2147512960,2147297810,2147520612,2147088566,2146920566,2147715830,2147120283,2589,-1,9,27471
1358795402,5808,1018.3499755859375000,213.8444976806640600,519.7211303710938000,6.9163379669189450,37.4195098876953100,54,111,101,79,81,12211,2146960749,2147517019,2147297252,2147517952,2147088118,2146922093,2147720557,2147119488,3511,-1,9,43019
1358799002,5806,1010.9799804687500000,214.7285003662109400,520.1052856445312000,6.9043660163879395,37.3759193420410160,55,109,98,78,80,12209,2146960996,2147515730,2147299154,2147518555,2147088182,2146923721,2147720091,2147118610,2229,-1,8,2264
1358802602,5804,1012.1799926757812000,215.3320007324218800,520.7495117187500000,6.8842878341674805,37.3522415161132800,55,109,98,80,81,12210,2146962706,2147515821,2147298843,2147518491,2147087881,2146920539,2147720914,2147120832,2885,-1,9,23849
1358806202,5806,1009.1400146484375000,215.8964996337890600,521.4464721679688000,6.8625631332397460,37.3326187133789060,55,110,98,80,81,12202,2146961801,2147517421,2147294756,2147518308,2147089508,2146920612,2147719442,2147118701,3112,-1,9,36148
1358809802,5805,1011.6900024414062000,215.6672973632812500,521.5523071289062000,6.8592638969421390,37.3469810485839840,54,112,98,79,81,12207,2146964498,2147514587,2147297179,2147518646,2147087460,2146928685,2147719990,2147119570,3312,-1,9,31868
1358813402,5805,1009.5700073242188000,216.6853027343750000,522.3204956054688000,6.8353152275085450,37.3032188415527340,55,111,98,79,79,12202,2146959725,2147516489,2147297993,2147521499,2147088000,2146916955,2147722962,2147122313,3513,-1,9,4090
1358817002,5805,1009.9199829101562000,216.5668945312500000,521.9974975585938000,6.8453860282897950,37.3041381835937500,54,111,104,79,81,12197,2146960704,2147516763,2147297170,2147521426,2147089691,2146923300,2147724059,2147118518,3507,-1,9,15036
1358820602,5804,1010.4600219726562000,215.7958984375000000,523.2780761718750000,6.8054552078247070,37.3708992004394500,54,112,99,79,81,12201,2146960064,2147516964,2147296859,2147518857,2147090294,2146924534,2147720073,2147122185,3561,-1,9,45918
1358824202,5805,1011.8400268554688000,216.2653961181640600,522.8129882812500000,6.8199567794799805,37.3350982666015600,55,110,98,77,81,12199,2146964361,2147518802,2147294619,2147519369,2147087533,2146919259,2147726710,2147120585,3463,-1,9,40080
1358827802,5809,1008.0399780273438000,215.3099975585937500,523.1782226562500000,6.8085708618164060,37.3972091674804700,54,109,98,78,80,12203,2146960521,2147516608,2147299437,2147519716,2147089170,2146919744,2147723145,2147119277,82,-1,8,38899
1358831402,5808,1012.0599975585938000,216.9362945556640600,522.9271240234375000,6.8164000511169430,37.2991294860839840,55,115,97,78,81,12199,2146962075,2147517266,2147296283,2147520722,2147087936,2146925129,2147722029,2147120329,15,-1,8,48529
1358835002,5808,1008.1400146484375000,216.0834045410156200,523.1536865234375000,6.8093338012695310,37.3522605895996100,54,110,98,79,80,12200,2146962724,2147514221,2147299867,2147520630,2147090761,2146924891,2147722413,2147123584,462,-1,8,50595
1358838602,5806,1012.8400268554688000,216.5198059082031200,523.3858032226562000,6.8020958900451660,37.3317604064941400,55,109,98,79,80,12193,2146963675,2147518976,2147298715,2147520850,2147091062,2146920850,2147719323,2147118884,3006,-1,9,11767
1358842202,5805,1007.9000244140625000,216.3251953125000000,523.3585815429688000,6.8029432296752930,37.3421401977539060,54,111,98,79,80,12187,2146965083,2147517558,2147296676,2147522587,2147090953,2146921270,2147723739,2147122980,3143,-1,9,47790
1358845802,5805,1009.1099853515625000,218.3085021972656200,523.6309814453125000,6.7944488525390625,37.2339286804199200,55,112,99,79,82,12190,2146963328,2147518308,2147299940,2147518491,2147090386,2146922212,2147723510,2147121609,3565,-1,9,60315
1358849402,5804,1009.4000244140625000,219.1069030761718800,525.7124023437500000,6.7295169830322270,37.2260398864746100,55,111,98,78,81,12185,2146962550,2147515419,2147297901,2147521225,2147089901,2146923346,2147721984,2147120192,3406,-1,9,22636
1358853002,5808,1014.0300292968750000,218.5496978759765600,523.5112915039062000,6.7981820106506350,37.2182693481445300,54,111,96,79,81,12185,2146963785,2147519478,2147297225,2147521005,2147090569,2146923702,2147722816,2147118061,166,-1,9,39308
1358856602,5805,1015.4699707031250000,217.8379974365234400,523.0046997070312000,6.8139810562133790,37.2496986389160160,54,111,98,79,81,12147,2146963501,2147520978,2147297572,2147520274,2147090267,2146926171,2147720365,2147120667,494,-1,8,16942
1358860202,5807,1008.0800170898438000,217.4373016357422000,523.4434204101562000,6.8002991676330570,37.2799682617187500,54,112,97,79,80,12117,2146962660,2147516480,2147296091,2147517522,2147090669,2146922304,2147717787,2147121280,106,-1,9,65490
1358863802,5807,1005.9699707031250000,217.4147949218750000,525.9782714843750000,6.7212200164794920,37.3263397216796900,54,110,98,80,80,12121,2146960758,2147517366,2147296201,2147526848,2147088868,2146920621,2147724169,2147120027,351,-1,8,24837
1358864755,5808,1003.4799804687500000,217.9721984863281200,526.2108764648438000,6.7139611244201660,37.2994194030761700,54,111,100,80,81,12184,2146961883,2147516461,2147299812,2147519716,2147089600,2146922642,2147720969,2147118665,16,0,8,35260
